ONEWEB-0336 (49202 NORAD) Tracking and Keplerian Element Data

This shows tracking and keplerian element data for the satellite.

Feedback or suggestion? Click here.




ElementValue
Catalog49202
NameONEWEB-0336
Epoch Orbit361
Epoch Day287.91667824
Epoch Year2021
RAAN317.5754
Inclination87.2117
Eccentricity0.001887
Argument of Perigee178.1585
Mean Anonmoly41.8369
Mean Motion14.91065859
Decay Rate-0.01301403
L11 49202U 21083S 21287.91667824 -.01301403 00000-0 -14226+0 0 9992
L22 49202 87.2117 317.5754 0018870 178.1585 41.8369 14.91065859 3615

Live tracking and technical data element details for ONEWEB-0336 (NORAD 49202). ONEWEB-0336 can be tracked NOW for your location showing map with azimuth and elevation plus other details from your city location.

Track the satellite on the map from your city or location and see movement details for azimuth, elevation, latitude, longitude, range, height, and movement on the map or in text.







IsCatalogInMostPopularTable: catalog: 49202, numindb: 11
Update: records affected: 1



GetName: 49202 ONEWEB-0336

Hit Count: updated at: Tue, 19 Oct 2021 09:14:18 GMT